TimePST,TemperatureF,Dew PointF,Humidity,Sea Level PressureIn,VisibilityMPH,Wind Direction,Wind SpeedMPH,Gust SpeedMPH,PrecipitationIn,Events,Conditions,WindDirDegrees,DateUTC
12:53 AM,54.0,41.0,62,29.94,8.0,NNE,3.5,-,N/A,,Clear,30,2013-11-14 08:53:00
1:53 AM,52.0,39.0,61,29.94,9.0,North,3.5,-,N/A,,Clear,360,2013-11-14 09:53:00
2:53 AM,57.0,35.1,44,29.93,10.0,Calm,Calm,-,N/A,,Clear,0,2013-11-14 10:53:00
3:53 AM,51.1,39.0,63,29.92,8.0,North,3.5,-,N/A,,Clear,350,2013-11-14 11:53:00
4:53 AM,50.0,39.0,66,29.92,7.0,North,3.5,-,N/A,,Clear,360,2013-11-14 12:53:00
5:53 AM,46.9,37.9,71,29.93,7.0,West,3.5,-,N/A,,Clear,270,2013-11-14 13:53:00
6:53 AM,50.0,37.9,63,29.93,10.0,Calm,Calm,-,N/A,,Partly Cloudy,0,2013-11-14 14:53:00
7:53 AM,62.1,48.0,60,29.94,10.0,Calm,Calm,-,N/A,,Partly Cloudy,0,2013-11-14 15:53:00
8:53 AM,75.0,37.9,26,29.95,10.0,Calm,Calm,-,N/A,,Partly Cloudy,0,2013-11-14 16:53:00
9:53 AM,82.0,34.0,18,29.94,10.0,Calm,Calm,-,N/A,,Partly Cloudy,0,2013-11-14 17:53:00
10:53 AM,88.0,27.0,11,29.92,10.0,SE,5.8,-,N/A,,Partly Cloudy,130,2013-11-14 18:53:00
11:53 AM,91.0,27.0,10,29.88,10.0,Variable,6.9,-,N/A,,Clear,0,2013-11-14 19:53:00
12:53 PM,91.0,25.0,9,29.84,10.0,Variable,4.6,-,N/A,,Clear,0,2013-11-14 20:53:00
1:53 PM,91.0,27.0,10,29.81,10.0,West,4.6,-,N/A,,Partly Cloudy,260,2013-11-14 21:53:00
2:53 PM,89.1,33.1,14,29.81,10.0,WSW,12.7,-,N/A,,Partly Cloudy,240,2013-11-14 22:53:00
3:53 PM,84.0,30.9,15,29.80,10.0,WSW,9.2,-,N/A,,Partly Cloudy,240,2013-11-14 23:53:00
4:53 PM,73.9,34.0,23,29.81,10.0,WNW,8.1,-,N/A,,Scattered Clouds,290,2013-11-15 00:53:00
5:53 PM,75.0,30.0,19,29.81,10.0,West,12.7,-,N/A,,Clear,280,2013-11-15 01:53:00
6:53 PM,69.1,37.9,32,29.82,10.0,WNW,6.9,-,N/A,,Clear,300,2013-11-15 02:53:00
7:53 PM,62.1,39.9,44,29.81,10.0,NNW,3.5,-,N/A,,Partly Cloudy,330,2013-11-15 03:53:00
8:53 PM,66.0,36.0,33,29.81,9.0,Calm,Calm,-,N/A,,Clear,0,2013-11-15 04:53:00
9:53 PM,57.9,39.0,49,29.81,6.0,NE,4.6,-,N/A,,Haze,40,2013-11-15 05:53:00
10:53 PM,55.9,39.9,55,29.78,6.0,Calm,Calm,-,N/A,,Haze,0,2013-11-15 06:53:00
11:53 PM,57.9,39.0,49,29.77,8.0,Calm,Calm,-,N/A,,Clear,0,2013-11-15 07:53:00